STARLINK-1653, 46352

Orbit data source: Space-Track

STARLINK-1653, 46352 is a payload satellite owned by SpaceX/Seattle (US) in LEO that was launched on Thu, 03 Sep 2020 UTC via an FALCON 9 launch vehicle from the Air Force Eastern Test Range (AFETR). Payload-class satellites include a variety of spacecraft equipped with specific instruments for various scientific and technological missions. These include communications satellites like Starlink; space stations such as the ISS; scientific satellites like the Hubble; Earth observation satellites from companies like Planet Labs, Umbra, and HawkEye 360; GPS; miniature CubeSats for education and research; and military/defense satellites.

Loading next visibility...
Identifier
46352, 2020-062AD
Orbit
LEO
Last TLE update
14 hours ago
Origin
Manufacturer
SpaceX/Seattle
Mission
Operational Commercial Communications
Bus & Motor
STARLINK, Unknown motor
Mass
260 kg wet, ~248 kg dry
Launch date (UTC)
2020-09-03 (5 years ago)
Launch vehicle
FALCON 9
Launch site
Air Force Eastern Test Range (AFETR)
Object type
Payload
Rocket body
Debris
Shape & HBR
Box + 1 Pan, 4.4 m
Radar Cross Section
13.562 m², Large (>1 m²)

Expand to show TLE details & history

TLE from 14 hours ago
0 STARLINK-1653
1 46352U 20062AD  25198.74382818 -.00000228  00000-0  35486-5 0  9990
2 46352  53.0561 331.3314 0001024  97.3628 262.7477 15.06388122269189
Epoch: 2025-07-17T17:51Z
TLE epoch observation values (Epoch: 2025-07-17T17:51:06.754Z)
Latitude
-0.00007°
Longitude
127.74796°
Altitude
548.217 km
Speed
7.589 km/s
True Right ascension
22h 05m 19s
True Declination
0° 00' 00"
Sunlit
Object was in full shadow at epoch
Visualization orbit readout
Latitude
-30.59315°
Longitude
98.85577°
Altitude
557.139 km
Speed
7.583 km/s
Apparent Right ascension
17h 54m 11s
Apparent Declination
-79° 46' 12"
Sunlit
Object is in full shadow
Visualization observer readout
Local Sidereal Time
20:45:35
Azimuth
188.199° SSW
Elevation
-32.114°
Doppler factor
1
Orbital elements
Apogee altitude
548.228 km
Perigee altitude
546.809 km
Semi-major axis
6,925.655 km
Eccentricity
0.0001
Inclination
53.0561°
RAAN
331.3314°
Arg. of periapsis
97.3628°
True anomaly
262.73606°
Mean anomaly
262.7477°
Eccentric anomaly
262.74188°
Mean motion
3.76575 °/min
Orbital period
95.6 mins
BSTAR
0.0000035486
Loading maneuver chart data...
Loading SW <> Apogee altitude chart data...
Loading historical data...
Loading historical data...
Loading historical data...
Loading historical data...
Loading historical data...
Loading historical data...
Loading historical data...
|